SWR176 LSZH-WSSS

Flight info

Callsign SWR176
Flight time N/A
Altitude 31000
Route DEGES Z2 UMVEG DCT DIMLO DCT TEGRI DCT VEVIN/N0484F330 DCT DINRO DCT UDROS DCT ABSAX DCT KARDE DCT REBLO M11 RODAR A909 ABDAN A846 MAISA/N0483F350 A846 RANAH L750 ZB G202 RK P628 IBANI L510 LEGIN/N0484F370 L510 GIVAL P628 VPL Y503 RINBA Y507 MAKNA Y511 TOPOR A464 ARAMA DCT TEBUN TEBUN1B
Aircraft B77W/H-SDE1E2E3FGHIJ2J3J4J5M1RWXY/LB1D1

Departure

Time 2026-05-05 21:01
Airport Zürich Airport (LSZH)

Arrival

Time N/A
Airport Singapore Changi Airport (WSSS)
Time Latitude Longitude Altitude Speed Heading
2026-05-05 19:27 47.46187 8.55397 1402 ft 0 kts 186°
2026-05-05 20:38 47.46199 8.55399 1412 ft 3 kts 186°
2026-05-05 20:38 47.46222 8.55402 1408 ft 3 kts 186°
2026-05-05 20:38 47.46242 8.55405 1411 ft 2 kts 186°
2026-05-05 20:39 47.46257 8.55412 1409 ft 3 kts 249°
2026-05-05 20:39 47.46259 8.55442 1411 ft 2 kts 276°
2026-05-05 20:39 47.46257 8.55475 1412 ft 3 kts 276°
2026-05-05 20:39 47.46255 8.55508 1412 ft 2 kts 276°
2026-05-05 20:40 47.46255 8.55510 1412 ft 0 kts 276°
2026-05-05 20:43 47.46255 8.55507 1412 ft 1 kts 276°
2026-05-05 20:43 47.46258 8.55467 1411 ft 8 kts 276°
2026-05-05 20:43 47.46266 8.55348 1409 ft 12 kts 276°
2026-05-05 20:43 47.46275 8.55224 1398 ft 12 kts 276°
2026-05-05 20:44 47.46283 8.55108 1405 ft 9 kts 276°
2026-05-05 20:44 47.46287 8.55016 1399 ft 9 kts 263°
2026-05-05 20:44 47.46250 8.54951 1404 ft 9 kts 191°
2026-05-05 20:44 47.46190 8.54970 1404 ft 9 kts 154°
2026-05-05 20:45 47.46077 8.55048 1407 ft 9 kts 155°
2026-05-05 20:45 47.46020 8.55087 1406 ft 9 kts 155°
2026-05-05 20:45 47.45963 8.55125 1404 ft 9 kts 155°
2026-05-05 20:46 47.45919 8.55155 1409 ft 0 kts 155°
2026-05-05 20:46 47.45871 8.55188 1410 ft 15 kts 155°
2026-05-05 20:46 47.45757 8.55266 1406 ft 17 kts 155°
2026-05-05 20:47 47.45663 8.55318 1411 ft 14 kts 162°
2026-05-05 20:47 47.45572 8.55373 1411 ft 14 kts 156°
2026-05-05 20:47 47.45489 8.55431 1414 ft 12 kts 154°
2026-05-05 20:47 47.45415 8.55483 1413 ft 12 kts 154°
2026-05-05 20:48 47.45338 8.55525 1418 ft 12 kts 171°
2026-05-05 20:48 47.45255 8.55521 1412 ft 12 kts 184°
2026-05-05 20:48 47.45172 8.55531 1408 ft 12 kts 162°
2026-05-05 20:48 47.45091 8.55583 1413 ft 12 kts 155°
2026-05-05 20:49 47.45013 8.55636 1408 ft 12 kts 155°
2026-05-05 20:49 47.44935 8.55689 1410 ft 12 kts 155°
2026-05-05 20:49 47.44855 8.55744 1408 ft 13 kts 155°
2026-05-05 20:49 47.44774 8.55798 1406 ft 13 kts 155°
2026-05-05 20:50 47.44698 8.55850 1409 ft 9 kts 155°
2026-05-05 20:50 47.44648 8.55860 1399 ft 8 kts 195°
2026-05-05 20:50 47.44614 8.55803 1407 ft 8 kts 243°
2026-05-05 20:50 47.44591 8.55733 1409 ft 8 kts 244°
2026-05-05 20:51 47.44581 8.55663 1409 ft 7 kts 292°
2026-05-05 20:51 47.44607 8.55632 1408 ft 0 kts 336°
2026-05-05 21:00 47.44614 8.55627 1406 ft 8 kts 336°
2026-05-05 21:00 47.44809 8.55496 1407 ft 66 kts 335°
2026-05-05 21:00 47.45472 8.55041 1403 ft 143 kts 335°
2026-05-05 21:01 47.46590 8.54268 1387 ft 209 kts 335°
2026-05-05 21:01 47.47955 8.53323 1988 ft 215 kts 334°
2026-05-05 21:01 47.49303 8.52389 2929 ft 214 kts 331°
2026-05-05 21:01 47.50069 8.51860 3410 ft 215 kts 330°
2026-05-05 21:02 47.51427 8.50930 4014 ft 216 kts 330°
2026-05-05 21:02 47.52354 8.50371 4309 ft 221 kts 341°
2026-05-05 21:02 47.53936 8.50503 4571 ft 244 kts 22°
2026-05-05 21:02 47.55224 8.52173 4923 ft 255 kts 61°
2026-05-05 21:03 47.55676 8.54697 5317 ft 257 kts 92°
2026-05-05 21:03 47.55697 8.57328 5848 ft 254 kts 90°
2026-05-05 21:03 47.55882 8.59944 6359 ft 259 kts 83°
2026-05-05 21:03 47.56214 8.62655 6572 ft 275 kts 81°
2026-05-05 21:04 47.56595 8.65477 6940 ft 285 kts 79°
2026-05-05 21:04 47.56850 8.68426 7175 ft 292 kts 99°
2026-05-05 21:04 47.56257 8.71256 7543 ft 288 kts 126°
2026-05-05 21:04 47.55076 8.73637 8086 ft 285 kts 143°
2026-05-05 21:05 47.53647 8.75628 8624 ft 288 kts 130°
2026-05-05 21:05 47.52793 8.78368 9166 ft 298 kts 112°
2026-05-05 21:05 47.52161 8.81292 9921 ft 294 kts 112°
2026-05-05 21:05 47.51474 8.84136 10611 ft 295 kts 114°
2026-05-05 21:06 47.50713 8.87064 10766 ft 316 kts 115°
2026-05-05 21:06 47.49867 8.90171 10945 ft 336 kts 115°
2026-05-05 21:06 47.48949 8.93458 11109 ft 356 kts 116°
2026-05-05 21:06 47.47966 8.96929 11328 ft 374 kts 116°
2026-05-05 21:07 47.46943 9.00526 11772 ft 385 kts 116°
2026-05-05 21:07 47.45892 9.04209 12367 ft 392 kts 115°
2026-05-05 21:07 47.45077 9.08048 12838 ft 399 kts 101°
2026-05-05 21:07 47.44838 9.12187 13412 ft 408 kts 93°
2026-05-05 21:08 47.44804 9.16396 14073 ft 411 kts 92°
2026-05-05 21:08 47.44773 9.20628 14753 ft 412 kts 92°
2026-05-05 21:08 47.44685 9.24858 15489 ft 413 kts 94°
2026-05-05 21:08 47.44538 9.29112 16191 ft 415 kts 95°
2026-05-05 21:09 47.44349 9.33385 16845 ft 418 kts 96°
2026-05-05 21:09 47.44138 9.37678 17496 ft 422 kts 96°
2026-05-05 21:09 47.43917 9.42010 18149 ft 424 kts 96°
2026-05-05 21:09 47.43692 9.46375 18727 ft 427 kts 97°
2026-05-05 21:10 47.43465 9.50775 19254 ft 432 kts 97°
2026-05-05 21:10 47.43237 9.55210 19749 ft 436 kts 97°
2026-05-05 21:10 47.43005 9.59697 20253 ft 440 kts 97°
2026-05-05 21:10 47.42812 9.64235 20696 ft 446 kts 96°
2026-05-05 21:11 47.42668 9.68836 21084 ft 453 kts 95°
2026-05-05 21:11 47.42539 9.73515 21585 ft 456 kts 95°
2026-05-05 21:11 47.42409 9.78190 22120 ft 459 kts 96°
2026-05-05 21:11 47.42272 9.82858 22618 ft 462 kts 96°
2026-05-05 21:12 47.42121 9.87667 23085 ft 466 kts 96°
2026-05-05 21:12 47.41965 9.92468 23524 ft 470 kts 96°
2026-05-05 21:12 47.41805 9.97320 23898 ft 473 kts 97°
2026-05-05 21:12 47.41652 10.01871 24254 ft 476 kts 97°
2026-05-05 21:13 47.41487 10.06713 24583 ft 479 kts 97°
2026-05-05 21:13 47.41316 10.11704 24936 ft 484 kts 97°
2026-05-05 21:13 47.41142 10.16693 25310 ft 487 kts 97°
2026-05-05 21:13 47.40967 10.21629 25710 ft 489 kts 97°
2026-05-05 21:14 47.40783 10.26728 26089 ft 492 kts 97°
2026-05-05 21:14 47.40602 10.31716 26456 ft 495 kts 97°
2026-05-05 21:14 47.40418 10.36792 26807 ft 497 kts 97°
2026-05-05 21:14 47.40229 10.41895 27149 ft 499 kts 97°
2026-05-05 21:15 47.40015 10.47024 27461 ft 500 kts 99°
2026-05-05 21:15 47.39543 10.52090 27819 ft 498 kts 105°
2026-05-05 21:15 47.38842 10.57104 28129 ft 499 kts 107°
2026-05-05 21:15 47.38111 10.62124 28459 ft 501 kts 107°
2026-05-05 21:16 47.37378 10.67158 28775 ft 503 kts 107°
2026-05-05 21:16 47.36651 10.72215 29052 ft 506 kts 106°
2026-05-05 21:16 47.35930 10.77296 29432 ft 505 kts 106°
2026-05-05 21:16 47.35218 10.82365 29814 ft 505 kts 106°
2026-05-05 21:17 47.34509 10.87424 30157 ft 504 kts 106°
2026-05-05 21:17 47.33800 10.92467 30530 ft 502 kts 106°
2026-05-05 21:17 47.33088 10.97510 30791 ft 503 kts 106°